Flag for U.S.A. Weather past 2 weeks in Chico, California, U.S.A.

Now
82 °F

Sunny.


Feels Like: 81 °F
Forecast: 64 / 83 °F
Wind: 12 mph from Southeast

Location: Chico Municipal

Current Time: Sep 23, 2014 at 7:42:39 PM

Latest Report: Sep 23, 2014 at 7:15 PM


Visibility: 10 mi

Pressure: 29.84 "Hg

Humidity: 32%

Dew point: 50 °F

Location of ChicoLocation

Historic Weather in Chico — Graph

°F

Chico temperature yesterday

Maximum temperature yesterday: 90 °F (at 4:50 PM)
Minimum temperature yesterday: 63 °F (at 6:35 AM)
Average temperature yesterday: 73 °F

Past Weeks' High & Low Weather Summary

 TemperatureHumidityPressure
High100 °F (Sep 13, 4:58 PM)94% (Sep 9, 9:48 AM)30.02 "Hg (Sep 9, 9:48 AM)
Low50 °F (Sep 9, 9:48 AM)11% (Sep 12, 3:58 PM)29.64 "Hg (Sep 17, 5:47 PM)
Average76 °F40%29.84 "Hg
* Reported Sep 8 5:54 PM — Sep 23 5:53 PM, Chico, Weather by CustomWeather, © 2014

Note: Actual official high and low records may vary slightly from our data, if they occured in-between our weather recording intervals... More about our weather records

Advertising

Chico weather history for previous 24 hours

 ConditionsComfort  
Time TempWeatherWind HumidityBarometerVisibility
5:53 PM
Sep 23
86 °FBroken clouds.17 mph29%29.85 "Hg25 mi
3:48 PM88 °FPartly sunny.17 mph25%29.88 "Hg25 mi
2:47 PM86 °FBroken clouds.17 mph27%29.90 "Hg25 mi
1:47 PM84 °FBroken clouds.16 mph29%29.92 "Hg10 mi
12:55 PM84 °FPartly sunny.9 mph31%29.94 "Hg4 mi
11:55 AM81 °FPartly sunny.12 mph37%29.96 "Hg3 mi
10:47 AM73 °FScattered clouds.7 mph47%29.98 "Hg5 mi
9:49 AM70 °FScattered clouds.9 mph53%29.99 "Hg10 mi
8:50 AM66 °FPartly sunny.9 mph64%29.98 "Hg10 mi
7:50 AM63 °FPartly cloudy.No wind73%29.97 "Hg10 mi
6:50 AM64 °FPartly cloudy.6 mph68%29.96 "Hg10 mi
6:35 AM64 °FClear.No wind68%29.94 "Hg10 mi
6:15 AM64 °FClear.5 mph73%29.94 "Hg10 mi
5:55 AM66 °FClear.6 mph64%29.94 "Hg10 mi
5:35 AM66 °FClear.7 mph64%29.93 "Hg10 mi
5:15 AM66 °FClear.9 mph64%29.91 "Hg10 mi
4:55 AM68 °FClear.10 mph60%29.90 "Hg10 mi
4:35 AM68 °FClear.8 mph60%29.91 "Hg10 mi
4:15 AM68 °FClear.7 mph60%29.91 "Hg10 mi
3:55 AM68 °FClear.9 mph60%29.90 "Hg10 mi
3:35 AM68 °FPassing clouds.7 mph56%29.90 "Hg10 mi
3:15 AM68 °FClear.6 mph53%29.90 "Hg10 mi
2:55 AM68 °FClear.6 mph53%29.90 "Hg10 mi
2:35 AM70 °FClear.5 mph50%29.90 "Hg10 mi
2:15 AM72 °FClear.5 mph47%29.91 "Hg10 mi
1:55 AM73 °FPassing clouds.6 mph44%29.91 "Hg10 mi
1:35 AM73 °FClear.8 mph44%29.91 "Hg10 mi
1:15 AM72 °FPassing clouds.8 mph44%29.91 "Hg10 mi
12:55 AM77 °FPassing clouds.6 mph39%29.91 "Hg10 mi
12:35 AM77 °FClear.8 mph39%29.90 "Hg10 mi
12:15 AM77 °FPassing clouds.8 mph39%29.90 "Hg10 mi
11:55 PM
Sep 22
77 °FClear.12 mph39%29.90 "Hg10 mi
11:15 PM75 °FPassing clouds.7 mph41%29.90 "Hg10 mi
10:55 PM77 °FPassing clouds.7 mph39%29.90 "Hg10 mi
10:15 PM79 °FPassing clouds.9 mph39%29.90 "Hg10 mi
9:55 PM77 °FPassing clouds.7 mph42%29.90 "Hg10 mi
9:35 PM81 °FOvercast.7 mph39%29.90 "Hg10 mi
9:15 PM81 °FPassing clouds.9 mph39%29.90 "Hg10 mi
8:55 PM81 °FPassing clouds.9 mph42%29.89 "Hg10 mi
8:35 PM81 °FPassing clouds.8 mph42%29.89 "Hg10 mi
8:15 PM81 °FPassing clouds.9 mph45%29.89 "Hg10 mi
7:55 PM81 °FSunny.7 mph45%29.88 "Hg10 mi
7:35 PM82 °FSunny.6 mph42%29.88 "Hg10 mi
7:15 PM82 °FSunny.6 mph42%29.88 "Hg10 mi
Weather by CustomWeather, © 2014

See weather overviewHow to use our weather pages